owner,sensor,date,latitude,longitude,air_temperature,qcFlag 
DISL,ioos:station:DISL:PPTA:1,2014-11-01T00:00:00Z,30.2791,-87.5561,20.34,1111122 
DISL,ioos:station:DISL:PPTA:1,2014-11-01T00:30:00Z,30.2791,-87.5561,19.97,1111122 
DISL,ioos:station:DISL:PPTA:1,2014-11-01T01:00:00Z,30.2791,-87.5561,19.66,1111122 
DISL,ioos:station:DISL:PPTA:1,2014-11-01T01:30:00Z,30.2791,-87.5561,19.15,1111122 
DISL,ioos:station:DISL:PPTA:1,2014-11-01T02:00:00Z,30.2791,-87.5561,18.92,1111122 
DISL,ioos:station:DISL:PPTA:1,2014-11-01T02:30:00Z,30.2791,-87.5561,18.41,1111122 
DISL,ioos:station:DISL:PPTA:1,2014-11-01T03:00:00Z,30.2791,-87.5561,17.94,1111122 
DISL,ioos:station:DISL:PPTA:1,2014-11-01T03:30:00Z,30.2791,-87.5561,17.29,1111122 
DISL,ioos:station:DISL:PPTA:1,2014-11-01T04:00:00Z,30.2791,-87.5561,16.47,1111122 
DISL,ioos:station:DISL:PPTA:1,2014-11-01T04:30:00Z,30.2791,-87.5561,15.53,1111122 
DISL,ioos:station:DISL:PPTA:1,2014-11-01T05:00:00Z,30.2791,-87.5561,14.68,1111122 
DISL,ioos:station:DISL:PPTA:1,2014-11-01T05:30:00Z,30.2791,-87.5561,13.66,1111122 
DISL,ioos:station:DISL:PPTA:1,2014-11-01T06:00:00Z,30.2791,-87.5561,13.05,1111122 
DISL,ioos:station:DISL:PPTA:1,2014-11-01T06:30:00Z,30.2791,-87.5561,12.65,1111122 
DISL,ioos:station:DISL:PPTA:1,2014-11-01T07:00:00Z,30.2791,-87.5561,12.04,1111122 
DISL,ioos:station:DISL:PPTA:1,2014-11-01T07:30:00Z,30.2791,-87.5561,11.4,1111122 
DISL,ioos:station:DISL:PPTA:1,2014-11-01T08:00:00Z,30.2791,-87.5561,10.03,1111122 
DISL,ioos:station:DISL:PPTA:1,2014-11-01T08:30:00Z,30.2791,-87.5561,9.09,1111122 
DISL,ioos:station:DISL:PPTA:1,2014-11-01T09:00:00Z,30.2791,-87.5561,8.79,1111122 
DISL,ioos:station:DISL:PPTA:1,2014-11-01T09:30:00Z,30.2791,-87.5561,7.836,1111122 
DISL,ioos:station:DISL:PPTA:1,2014-11-01T10:00:00Z,30.2791,-87.5561,7.161,1111122 
DISL,ioos:station:DISL:PPTA:1,2014-11-01T10:30:00Z,30.2791,-87.5561,6.962,1111122 
DISL,ioos:station:DISL:PPTA:1,2014-11-01T11:00:00Z,30.2791,-87.5561,6.656,1111122 
DISL,ioos:station:DISL:PPTA:1,2014-11-01T11:30:00Z,30.2791,-87.5561,6.417,1111122 
DISL,ioos:station:DISL:PPTA:1,2014-11-01T12:00:00Z,30.2791,-87.5561,6.116,1111122 
DISL,ioos:station:DISL:PPTA:1,2014-11-01T12:30:00Z,30.2791,-87.5561,5.912,1111122 
DISL,ioos:station:DISL:PPTA:1,2014-11-01T13:00:00Z,30.2791,-87.5561,6.05,1111122 
DISL,ioos:station:DISL:PPTA:1,2014-11-01T13:30:00Z,30.2791,-87.5561,6.179,1111122 
DISL,ioos:station:DISL:PPTA:1,2014-11-01T14:00:00Z,30.2791,-87.5561,6.792,1111122 
DISL,ioos:station:DISL:PPTA:1,2014-11-01T14:30:00Z,30.2791,-87.5561,7.162,1111122 
DISL,ioos:station:DISL:PPTA:1,2014-11-01T15:00:00Z,30.2791,-87.5561,7.971,1111122 
DISL,ioos:station:DISL:PPTA:1,2014-11-01T15:30:00Z,30.2791,-87.5561,8.75,1111122 
DISL,ioos:station:DISL:PPTA:1,2014-11-01T16:00:00Z,30.2791,-87.5561,9.05,1111122 
DISL,ioos:station:DISL:PPTA:1,2014-11-01T16:30:00Z,30.2791,-87.5561,9.86,1111122 
DISL,ioos:station:DISL:PPTA:1,2014-11-01T17:00:00Z,30.2791,-87.5561,10.78,1111122 
DISL,ioos:station:DISL:PPTA:1,2014-11-01T17:30:00Z,30.2791,-87.5561,11.39,1111122 
DISL,ioos:station:DISL:PPTA:1,2014-11-01T18:00:00Z,30.2791,-87.5561,11.93,1111122 
DISL,ioos:station:DISL:PPTA:1,2014-11-01T18:30:00Z,30.2791,-87.5561,12.34,1111122 
DISL,ioos:station:DISL:PPTA:1,2014-11-01T19:00:00Z,30.2791,-87.5561,13.09,1111122 
DISL,ioos:station:DISL:PPTA:1,2014-11-01T19:30:00Z,30.2791,-87.5561,13.57,1111122 
DISL,ioos:station:DISL:PPTA:1,2014-11-01T20:00:00Z,30.2791,-87.5561,13.74,1111122 
DISL,ioos:station:DISL:PPTA:1,2014-11-01T20:30:00Z,30.2791,-87.5561,14.01,1111122 
DISL,ioos:station:DISL:PPTA:1,2014-11-01T21:00:00Z,30.2791,-87.5561,14.25,1111122 
DISL,ioos:station:DISL:PPTA:1,2014-11-01T21:30:00Z,30.2791,-87.5561,14.29,1111122 
DISL,ioos:station:DISL:PPTA:1,2014-11-01T22:00:00Z,30.2791,-87.5561,14.15,1111122 
DISL,ioos:station:DISL:PPTA:1,2014-11-01T22:30:00Z,30.2791,-87.5561,14.01,1111122 
DISL,ioos:station:DISL:PPTA:1,2014-11-01T23:00:00Z,30.2791,-87.5561,13.47,1111122 
DISL,ioos:station:DISL:PPTA:1,2014-11-01T23:30:00Z,30.2791,-87.5561,12.76,1111122 
DISL,ioos:station:DISL:PPTA:1,2014-11-02T00:00:00Z,30.2791,-87.5561,12.49,1111122 
DISL,ioos:station:DISL:PPTA:1,2014-11-02T00:30:00Z,30.2791,-87.5561,11.91,1111122 
DISL,ioos:station:DISL:PPTA:1,2014-11-02T01:00:00Z,30.2791,-87.5561,11.51,1111122 
DISL,ioos:station:DISL:PPTA:1,2014-11-02T01:30:00Z,30.2791,-87.5561,11.41,1111122 
DISL,ioos:station:DISL:PPTA:1,2014-11-02T02:00:00Z,30.2791,-87.5561,10.8,1111122 
DISL,ioos:station:DISL:PPTA:1,2014-11-02T02:30:00Z,30.2791,-87.5561,9.98,1111122 
DISL,ioos:station:DISL:PPTA:1,2014-11-02T03:00:00Z,30.2791,-87.5561,10.19,1111122 
DISL,ioos:station:DISL:PPTA:1,2014-11-02T03:30:00Z,30.2791,-87.5561,9.68,1111122 
DISL,ioos:station:DISL:PPTA:1,2014-11-02T04:00:00Z,30.2791,-87.5561,9.37,1111122 
DISL,ioos:station:DISL:PPTA:1,2014-11-02T04:30:00Z,30.2791,-87.5561,9.1,1111122 
DISL,ioos:station:DISL:PPTA:1,2014-11-02T05:00:00Z,30.2791,-87.5561,8.8,1111122 
DISL,ioos:station:DISL:PPTA:1,2014-11-02T05:30:00Z,30.2791,-87.5561,8.56,1111122 
DISL,ioos:station:DISL:PPTA:1,2014-11-02T06:00:00Z,30.2791,-87.5561,8.46,1111122 
DISL,ioos:station:DISL:PPTA:1,2014-11-02T06:30:00Z,30.2791,-87.5561,8.02,1111122 
DISL,ioos:station:DISL:PPTA:1,2014-11-02T07:00:00Z,30.2791,-87.5561,7.647,1111122 
DISL,ioos:station:DISL:PPTA:1,2014-11-02T07:30:00Z,30.2791,-87.5561,7.375,1111122 
DISL,ioos:station:DISL:PPTA:1,2014-11-02T08:00:00Z,30.2791,-87.5561,7.204,1111122 
DISL,ioos:station:DISL:PPTA:1,2014-11-02T08:30:00Z,30.2791,-87.5561,7.101,1111122 
DISL,ioos:station:DISL:PPTA:1,2014-11-02T09:00:00Z,30.2791,-87.5561,6.726,1111122 
DISL,ioos:station:DISL:PPTA:1,2014-11-02T09:30:00Z,30.2791,-87.5561,6.082,1111122 
DISL,ioos:station:DISL:PPTA:1,2014-11-02T10:00:00Z,30.2791,-87.5561,6.049,1111122 
DISL,ioos:station:DISL:PPTA:1,2014-11-02T10:30:00Z,30.2791,-87.5561,6.295,1111122 
DISL,ioos:station:DISL:PPTA:1,2014-11-02T11:00:00Z,30.2791,-87.5561,5.988,1111122 
DISL,ioos:station:DISL:PPTA:1,2014-11-02T11:30:00Z,30.2791,-87.5561,6.262,1111122 
DISL,ioos:station:DISL:PPTA:1,2014-11-02T12:00:00Z,30.2791,-87.5561,5.441,1111122 
DISL,ioos:station:DISL:PPTA:1,2014-11-02T12:30:00Z,30.2791,-87.5561,5.475,1111122 
DISL,ioos:station:DISL:PPTA:1,2014-11-02T13:00:00Z,30.2791,-87.5561,5.649,1111122 
DISL,ioos:station:DISL:PPTA:1,2014-11-02T13:30:00Z,30.2791,-87.5561,6.634,1111122 
DISL,ioos:station:DISL:PPTA:1,2014-11-02T14:00:00Z,30.2791,-87.5561,7.684,1111122 
DISL,ioos:station:DISL:PPTA:1,2014-11-02T14:30:00Z,30.2791,-87.5561,8.97,1111122 
DISL,ioos:station:DISL:PPTA:1,2014-11-02T15:00:00Z,30.2791,-87.5561,9.4,1111122 
DISL,ioos:station:DISL:PPTA:1,2014-11-02T15:30:00Z,30.2791,-87.5561,10.49,1111122 
DISL,ioos:station:DISL:PPTA:1,2014-11-02T16:00:00Z,30.2791,-87.5561,11.26,1111122 
DISL,ioos:station:DISL:PPTA:1,2014-11-02T16:30:00Z,30.2791,-87.5561,11.86,1111122 
DISL,ioos:station:DISL:PPTA:1,2014-11-02T17:00:00Z,30.2791,-87.5561,13.05,1111122 
DISL,ioos:station:DISL:PPTA:1,2014-11-02T17:30:00Z,30.2791,-87.5561,13.66,1111122 
DISL,ioos:station:DISL:PPTA:1,2014-11-02T18:00:00Z,30.2791,-87.5561,14.1,1111122 
DISL,ioos:station:DISL:PPTA:1,2014-11-02T18:30:00Z,30.2791,-87.5561,14.68,1111122 
DISL,ioos:station:DISL:PPTA:1,2014-11-02T19:00:00Z,30.2791,-87.5561,15.53,1111122 
DISL,ioos:station:DISL:PPTA:1,2014-11-02T19:30:00Z,30.2791,-87.5561,16.11,1111122 
DISL,ioos:station:DISL:PPTA:1,2014-11-02T20:00:00Z,30.2791,-87.5561,16.63,1111122 
DISL,ioos:station:DISL:PPTA:1,2014-11-02T20:30:00Z,30.2791,-87.5561,17.27,1111122 
DISL,ioos:station:DISL:PPTA:1,2014-11-02T21:00:00Z,30.2791,-87.5561,17.68,1111122 
DISL,ioos:station:DISL:PPTA:1,2014-11-02T21:30:00Z,30.2791,-87.5561,18.09,1111122 
DISL,ioos:station:DISL:PPTA:1,2014-11-02T22:00:00Z,30.2791,-87.5561,17.92,1111122 
DISL,ioos:station:DISL:PPTA:1,2014-11-02T22:30:00Z,30.2791,-87.5561,17.79,1111122 
DISL,ioos:station:DISL:PPTA:1,2014-11-02T23:00:00Z,30.2791,-87.5561,17.0,1111122 
DISL,ioos:station:DISL:PPTA:1,2014-11-02T23:30:00Z,30.2791,-87.5561,16.01,1111122 
DISL,ioos:station:DISL:PPTA:1,2014-11-03T00:00:00Z,30.2791,-87.5561,15.44,1111122 
DISL,ioos:station:DISL:PPTA:1,2014-11-03T00:30:00Z,30.2791,-87.5561,14.08,1111122 
DISL,ioos:station:DISL:PPTA:1,2014-11-03T01:00:00Z,30.2791,-87.5561,13.54,1111122 
DISL,ioos:station:DISL:PPTA:1,2014-11-03T01:30:00Z,30.2791,-87.5561,12.93,1111122 
DISL,ioos:station:DISL:PPTA:1,2014-11-03T02:00:00Z,30.2791,-87.5561,12.9,1111122 
DISL,ioos:station:DISL:PPTA:1,2014-11-03T02:30:00Z,30.2791,-87.5561,13.08,1111122 
DISL,ioos:station:DISL:PPTA:1,2014-11-03T03:00:00Z,30.2791,-87.5561,12.84,1111122 
DISL,ioos:station:DISL:PPTA:1,2014-11-03T03:30:00Z,30.2791,-87.5561,12.77,1111122 
DISL,ioos:station:DISL:PPTA:1,2014-11-03T04:00:00Z,30.2791,-87.5561,12.7,1111122 
DISL,ioos:station:DISL:PPTA:1,2014-11-03T04:30:00Z,30.2791,-87.5561,12.63,1111122 
DISL,ioos:station:DISL:PPTA:1,2014-11-03T05:00:00Z,30.2791,-87.5561,12.12,1111122 
DISL,ioos:station:DISL:PPTA:1,2014-11-03T05:30:00Z,30.2791,-87.5561,11.85,1111122 
DISL,ioos:station:DISL:PPTA:1,2014-11-03T06:00:00Z,30.2791,-87.5561,11.65,1111122 
DISL,ioos:station:DISL:PPTA:1,2014-11-03T06:30:00Z,30.2791,-87.5561,11.62,1111122 
DISL,ioos:station:DISL:PPTA:1,2014-11-03T07:00:00Z,30.2791,-87.5561,11.38,1111122 
DISL,ioos:station:DISL:PPTA:1,2014-11-03T07:30:00Z,30.2791,-87.5561,11.07,1111122 
DISL,ioos:station:DISL:PPTA:1,2014-11-03T08:00:00Z,30.2791,-87.5561,9.88,1111122 
DISL,ioos:station:DISL:PPTA:1,2014-11-03T08:30:00Z,30.2791,-87.5561,10.46,1111122 
DISL,ioos:station:DISL:PPTA:1,2014-11-03T09:00:00Z,30.2791,-87.5561,10.84,1111122 
DISL,ioos:station:DISL:PPTA:1,2014-11-03T09:30:00Z,30.2791,-87.5561,10.91,1111122 
DISL,ioos:station:DISL:PPTA:1,2014-11-03T10:00:00Z,30.2791,-87.5561,11.49,1111122 
DISL,ioos:station:DISL:PPTA:1,2014-11-03T10:30:00Z,30.2791,-87.5561,10.9,1111122 
DISL,ioos:station:DISL:PPTA:1,2014-11-03T11:00:00Z,30.2791,-87.5561,10.25,1111122 
DISL,ioos:station:DISL:PPTA:1,2014-11-03T11:30:00Z,30.2791,-87.5561,10.67,1111122 
DISL,ioos:station:DISL:PPTA:1,2014-11-03T12:00:00Z,30.2791,-87.5561,11.01,1111122 
DISL,ioos:station:DISL:PPTA:1,2014-11-03T12:30:00Z,30.2791,-87.5561,11.66,1111122 
DISL,ioos:station:DISL:PPTA:1,2014-11-03T13:00:00Z,30.2791,-87.5561,12.23,1111122 
DISL,ioos:station:DISL:PPTA:1,2014-11-03T13:30:00Z,30.2791,-87.5561,12.67,1111122 
DISL,ioos:station:DISL:PPTA:1,2014-11-03T14:00:00Z,30.2791,-87.5561,13.17,1111122 
DISL,ioos:station:DISL:PPTA:1,2014-11-03T14:30:00Z,30.2791,-87.5561,14.25,1111122 
DISL,ioos:station:DISL:PPTA:1,2014-11-03T15:00:00Z,30.2791,-87.5561,15.43,1111122 
DISL,ioos:station:DISL:PPTA:1,2014-11-03T15:30:00Z,30.2791,-87.5561,16.27,1111122 
DISL,ioos:station:DISL:PPTA:1,2014-11-03T16:00:00Z,30.2791,-87.5561,16.61,1111122 
DISL,ioos:station:DISL:PPTA:1,2014-11-03T16:30:00Z,30.2791,-87.5561,17.07,1111122 
DISL,ioos:station:DISL:PPTA:1,2014-11-03T17:00:00Z,30.2791,-87.5561,17.27,1111122 
DISL,ioos:station:DISL:PPTA:1,2014-11-03T17:30:00Z,30.2791,-87.5561,17.61,1111122 
DISL,ioos:station:DISL:PPTA:1,2014-11-03T18:00:00Z,30.2791,-87.5561,17.71,1111122 
DISL,ioos:station:DISL:PPTA:1,2014-11-03T18:30:00Z,30.2791,-87.5561,17.75,1111122 
DISL,ioos:station:DISL:PPTA:1,2014-11-03T19:00:00Z,30.2791,-87.5561,17.99,1111122 
DISL,ioos:station:DISL:PPTA:1,2014-11-03T19:30:00Z,30.2791,-87.5561,18.27,1111122 
DISL,ioos:station:DISL:PPTA:1,2014-11-03T20:00:00Z,30.2791,-87.5561,18.71,1111122 
DISL,ioos:station:DISL:PPTA:1,2014-11-03T20:30:00Z,30.2791,-87.5561,18.85,1111122 
DISL,ioos:station:DISL:PPTA:1,2014-11-03T21:00:00Z,30.2791,-87.5561,18.86,1111122 
DISL,ioos:station:DISL:PPTA:1,2014-11-03T21:30:00Z,30.2791,-87.5561,18.82,1111122 
DISL,ioos:station:DISL:PPTA:1,2014-11-03T22:00:00Z,30.2791,-87.5561,18.83,1111122 
DISL,ioos:station:DISL:PPTA:1,2014-11-03T22:30:00Z,30.2791,-87.5561,18.48,1111122 
DISL,ioos:station:DISL:PPTA:1,2014-11-03T23:00:00Z,30.2791,-87.5561,18.25,1111122 
DISL,ioos:station:DISL:PPTA:1,2014-11-03T23:30:00Z,30.2791,-87.5561,17.53,1111122 
DISL,ioos:station:DISL:PPTA:1,2014-11-04T00:00:00Z,30.2791,-87.5561,17.08,1111122 
DISL,ioos:station:DISL:PPTA:1,2014-11-04T00:30:00Z,30.2791,-87.5561,17.13,1111122 
DISL,ioos:station:DISL:PPTA:1,2014-11-04T01:00:00Z,30.2791,-87.5561,17.62,1111122 
DISL,ioos:station:DISL:PPTA:1,2014-11-04T01:30:00Z,30.2791,-87.5561,17.65,1111122 
DISL,ioos:station:DISL:PPTA:1,2014-11-04T02:00:00Z,30.2791,-87.5561,18.57,1111122 
DISL,ioos:station:DISL:PPTA:1,2014-11-04T02:30:00Z,30.2791,-87.5561,17.13,1111122 
DISL,ioos:station:DISL:PPTA:1,2014-11-04T03:00:00Z,30.2791,-87.5561,16.35,1111122 
DISL,ioos:station:DISL:PPTA:1,2014-11-04T03:30:00Z,30.2791,-87.5561,15.81,1111122 
DISL,ioos:station:DISL:PPTA:1,2014-11-04T04:00:00Z,30.2791,-87.5561,15.43,1111122 
DISL,ioos:station:DISL:PPTA:1,2014-11-04T04:30:00Z,30.2791,-87.5561,14.96,1111122 
DISL,ioos:station:DISL:PPTA:1,2014-11-04T05:00:00Z,30.2791,-87.5561,14.52,1111122 
DISL,ioos:station:DISL:PPTA:1,2014-11-04T05:30:00Z,30.2791,-87.5561,14.42,1111122 
DISL,ioos:station:DISL:PPTA:1,2014-11-04T06:00:00Z,30.2791,-87.5561,14.63,1111122 
DISL,ioos:station:DISL:PPTA:1,2014-11-04T06:30:00Z,30.2791,-87.5561,14.8,1111122 
DISL,ioos:station:DISL:PPTA:1,2014-11-04T07:00:00Z,30.2791,-87.5561,14.97,1111122 
DISL,ioos:station:DISL:PPTA:1,2014-11-04T07:30:00Z,30.2791,-87.5561,15.07,1111122 
DISL,ioos:station:DISL:PPTA:1,2014-11-04T08:00:00Z,30.2791,-87.5561,15.17,1111122 
DISL,ioos:station:DISL:PPTA:1,2014-11-04T08:30:00Z,30.2791,-87.5561,14.59,1111122 
DISL,ioos:station:DISL:PPTA:1,2014-11-04T09:00:00Z,30.2791,-87.5561,14.63,1111122 
DISL,ioos:station:DISL:PPTA:1,2014-11-04T09:30:00Z,30.2791,-87.5561,14.63,1111122 
DISL,ioos:station:DISL:PPTA:1,2014-11-04T10:00:00Z,30.2791,-87.5561,14.05,1111122 
DISL,ioos:station:DISL:PPTA:1,2014-11-04T10:30:00Z,30.2791,-87.5561,14.08,1111122 
DISL,ioos:station:DISL:PPTA:1,2014-11-04T11:00:00Z,30.2791,-87.5561,13.95,1111122 
DISL,ioos:station:DISL:PPTA:1,2014-11-04T11:30:00Z,30.2791,-87.5561,13.64,1111122 
DISL,ioos:station:DISL:PPTA:1,2014-11-04T12:00:00Z,30.2791,-87.5561,13.88,1111122 
DISL,ioos:station:DISL:PPTA:1,2014-11-04T12:30:00Z,30.2791,-87.5561,14.12,1111122 
DISL,ioos:station:DISL:PPTA:1,2014-11-04T13:00:00Z,30.2791,-87.5561,14.87,1111122 
DISL,ioos:station:DISL:PPTA:1,2014-11-04T13:30:00Z,30.2791,-87.5561,15.68,1111122 
DISL,ioos:station:DISL:PPTA:1,2014-11-04T14:00:00Z,30.2791,-87.5561,16.73,1111122 
DISL,ioos:station:DISL:PPTA:1,2014-11-04T14:30:00Z,30.2791,-87.5561,17.22,1111122 
DISL,ioos:station:DISL:PPTA:1,2014-11-04T15:00:00Z,30.2791,-87.5561,17.38,1111122 
DISL,ioos:station:DISL:PPTA:1,2014-11-04T15:30:00Z,30.2791,-87.5561,19.18,1111122 
DISL,ioos:station:DISL:PPTA:1,2014-11-04T16:00:00Z,30.2791,-87.5561,19.56,1111122 
DISL,ioos:station:DISL:PPTA:1,2014-11-04T16:30:00Z,30.2791,-87.5561,20.81,1111122 
DISL,ioos:station:DISL:PPTA:1,2014-11-04T17:00:00Z,30.2791,-87.5561,20.7,1111122 
DISL,ioos:station:DISL:PPTA:1,2014-11-04T17:30:00Z,30.2791,-87.5561,20.63,1111122 
DISL,ioos:station:DISL:PPTA:1,2014-11-04T18:00:00Z,30.2791,-87.5561,20.76,1111122 
DISL,ioos:station:DISL:PPTA:1,2014-11-04T18:30:00Z,30.2791,-87.5561,20.39,1111122 
DISL,ioos:station:DISL:PPTA:1,2014-11-04T19:00:00Z,30.2791,-87.5561,20.7,1111122 
DISL,ioos:station:DISL:PPTA:1,2014-11-04T19:30:00Z,30.2791,-87.5561,20.6,1111122 
DISL,ioos:station:DISL:PPTA:1,2014-11-04T20:00:00Z,30.2791,-87.5561,20.57,1111122 
DISL,ioos:station:DISL:PPTA:1,2014-11-04T20:30:00Z,30.2791,-87.5561,20.71,1111122 
DISL,ioos:station:DISL:PPTA:1,2014-11-04T21:00:00Z,30.2791,-87.5561,21.12,1111122 
DISL,ioos:station:DISL:PPTA:1,2014-11-04T21:30:00Z,30.2791,-87.5561,21.36,1111122 
DISL,ioos:station:DISL:PPTA:1,2014-11-04T22:00:00Z,30.2791,-87.5561,21.36,1111122 
DISL,ioos:station:DISL:PPTA:1,2014-11-04T22:30:00Z,30.2791,-87.5561,21.23,1111122 
DISL,ioos:station:DISL:PPTA:1,2014-11-04T23:00:00Z,30.2791,-87.5561,20.55,1111122 
DISL,ioos:station:DISL:PPTA:1,2014-11-04T23:30:00Z,30.2791,-87.5561,20.24,1111122 
DISL,ioos:station:DISL:PPTA:1,2014-11-05T00:00:00Z,30.2791,-87.5561,19.8,1111122 
DISL,ioos:station:DISL:PPTA:1,2014-11-05T00:30:00Z,30.2791,-87.5561,20.58,1111122 
DISL,ioos:station:DISL:PPTA:1,2014-11-05T01:00:00Z,30.2791,-87.5561,21.23,1111122 
DISL,ioos:station:DISL:PPTA:1,2014-11-05T01:30:00Z,30.2791,-87.5561,21.13,1111122 
DISL,ioos:station:DISL:PPTA:1,2014-11-05T02:00:00Z,30.2791,-87.5561,21.33,1111122 
DISL,ioos:station:DISL:PPTA:1,2014-11-05T02:30:00Z,30.2791,-87.5561,21.16,1111122 
DISL,ioos:station:DISL:PPTA:1,2014-11-05T03:00:00Z,30.2791,-87.5561,21.06,1111122 
DISL,ioos:station:DISL:PPTA:1,2014-11-05T03:30:00Z,30.2791,-87.5561,21.06,1111122 
DISL,ioos:station:DISL:PPTA:1,2014-11-05T04:00:00Z,30.2791,-87.5561,21.19,1111122 
DISL,ioos:station:DISL:PPTA:1,2014-11-05T04:30:00Z,30.2791,-87.5561,21.26,1111122 
DISL,ioos:station:DISL:PPTA:1,2014-11-05T05:00:00Z,30.2791,-87.5561,21.3,1111122 
DISL,ioos:station:DISL:PPTA:1,2014-11-05T05:30:00Z,30.2791,-87.5561,21.26,1111122 
DISL,ioos:station:DISL:PPTA:1,2014-11-05T06:00:00Z,30.2791,-87.5561,21.22,1111122 
DISL,ioos:station:DISL:PPTA:1,2014-11-05T06:30:00Z,30.2791,-87.5561,21.33,1111122 
DISL,ioos:station:DISL:PPTA:1,2014-11-05T07:00:00Z,30.2791,-87.5561,21.29,1111122 
DISL,ioos:station:DISL:PPTA:1,2014-11-05T07:30:00Z,30.2791,-87.5561,21.26,1111122 
DISL,ioos:station:DISL:PPTA:1,2014-11-05T08:00:00Z,30.2791,-87.5561,21.23,1111122 
DISL,ioos:station:DISL:PPTA:1,2014-11-05T08:30:00Z,30.2791,-87.5561,21.26,1111122 
DISL,ioos:station:DISL:PPTA:1,2014-11-05T09:00:00Z,30.2791,-87.5561,21.19,1111122 
DISL,ioos:station:DISL:PPTA:1,2014-11-05T09:30:00Z,30.2791,-87.5561,21.3,1111122 
DISL,ioos:station:DISL:PPTA:1,2014-11-05T10:00:00Z,30.2791,-87.5561,21.23,1111122 
DISL,ioos:station:DISL:PPTA:1,2014-11-05T10:30:00Z,30.2791,-87.5561,21.23,1111122 
DISL,ioos:station:DISL:PPTA:1,2014-11-05T11:00:00Z,30.2791,-87.5561,21.23,1111122 
DISL,ioos:station:DISL:PPTA:1,2014-11-05T11:30:00Z,30.2791,-87.5561,21.02,1111122 
DISL,ioos:station:DISL:PPTA:1,2014-11-05T12:00:00Z,30.2791,-87.5561,21.09,1111122 
DISL,ioos:station:DISL:PPTA:1,2014-11-05T12:30:00Z,30.2791,-87.5561,21.19,1111122 
DISL,ioos:station:DISL:PPTA:1,2014-11-05T13:00:00Z,30.2791,-87.5561,22.01,1111122 
DISL,ioos:station:DISL:PPTA:1,2014-11-05T13:30:00Z,30.2791,-87.5561,20.15,1111122 
DISL,ioos:station:DISL:PPTA:1,2014-11-05T14:00:00Z,30.2791,-87.5561,19.91,1111122 
DISL,ioos:station:DISL:PPTA:1,2014-11-05T14:30:00Z,30.2791,-87.5561,22.16,1111122 
DISL,ioos:station:DISL:PPTA:1,2014-11-05T15:00:00Z,30.2791,-87.5561,22.59,1111122 
DISL,ioos:station:DISL:PPTA:1,2014-11-05T15:30:00Z,30.2791,-87.5561,22.82,1111122 
DISL,ioos:station:DISL:PPTA:1,2014-11-05T16:00:00Z,30.2791,-87.5561,22.91,1111122 
DISL,ioos:station:DISL:PPTA:1,2014-11-05T16:30:00Z,30.2791,-87.5561,22.97,1111122 
DISL,ioos:station:DISL:PPTA:1,2014-11-05T17:00:00Z,30.2791,-87.5561,22.94,1111122 
DISL,ioos:station:DISL:PPTA:1,2014-11-05T17:30:00Z,30.2791,-87.5561,23.31,1111122 
DISL,ioos:station:DISL:PPTA:1,2014-11-05T18:00:00Z,30.2791,-87.5561,23.31,1111122 
DISL,ioos:station:DISL:PPTA:1,2014-11-05T18:30:00Z,30.2791,-87.5561,23.31,1111122 
DISL,ioos:station:DISL:PPTA:1,2014-11-05T19:00:00Z,30.2791,-87.5561,22.94,1111122 
DISL,ioos:station:DISL:PPTA:1,2014-11-05T19:30:00Z,30.2791,-87.5561,23.08,1111122 
DISL,ioos:station:DISL:PPTA:1,2014-11-05T20:00:00Z,30.2791,-87.5561,23.13,1111122 
DISL,ioos:station:DISL:PPTA:1,2014-11-05T20:30:00Z,30.2791,-87.5561,23.17,1111122 
DISL,ioos:station:DISL:PPTA:1,2014-11-05T21:00:00Z,30.2791,-87.5561,22.86,1111122 
DISL,ioos:station:DISL:PPTA:1,2014-11-05T21:30:00Z,30.2791,-87.5561,22.52,1111122 
DISL,ioos:station:DISL:PPTA:1,2014-11-05T22:00:00Z,30.2791,-87.5561,22.38,1111122 
DISL,ioos:station:DISL:PPTA:1,2014-11-05T22:30:00Z,30.2791,-87.5561,22.29,1111122 
DISL,ioos:station:DISL:PPTA:1,2014-11-05T23:00:00Z,30.2791,-87.5561,22.19,1111122 
DISL,ioos:station:DISL:PPTA:1,2014-11-05T23:30:00Z,30.2791,-87.5561,21.31,1111122 
DISL,ioos:station:DISL:PPTA:1,2014-11-06T00:00:00Z,30.2791,-87.5561,21.24,1111122 
DISL,ioos:station:DISL:PPTA:1,2014-11-06T00:30:00Z,30.2791,-87.5561,20.94,1111122 
DISL,ioos:station:DISL:PPTA:1,2014-11-06T01:00:00Z,30.2791,-87.5561,21.53,1111122 
DISL,ioos:station:DISL:PPTA:1,2014-11-06T01:30:00Z,30.2791,-87.5561,21.39,1111122 
DISL,ioos:station:DISL:PPTA:1,2014-11-06T02:00:00Z,30.2791,-87.5561,21.73,1111122 
DISL,ioos:station:DISL:PPTA:1,2014-11-06T02:30:00Z,30.2791,-87.5561,21.69,1111122 
DISL,ioos:station:DISL:PPTA:1,2014-11-06T03:00:00Z,30.2791,-87.5561,21.82,1111122 
DISL,ioos:station:DISL:PPTA:1,2014-11-06T03:30:00Z,30.2791,-87.5561,21.69,1111122 
DISL,ioos:station:DISL:PPTA:1,2014-11-06T04:00:00Z,30.2791,-87.5561,21.72,1111122 
DISL,ioos:station:DISL:PPTA:1,2014-11-06T04:30:00Z,30.2791,-87.5561,21.31,1111122 
DISL,ioos:station:DISL:PPTA:1,2014-11-06T05:00:00Z,30.2791,-87.5561,21.39,1111122 
DISL,ioos:station:DISL:PPTA:1,2014-11-06T05:30:00Z,30.2791,-87.5561,21.9,1111122 
DISL,ioos:station:DISL:PPTA:1,2014-11-06T06:00:00Z,30.2791,-87.5561,21.86,1111122 
DISL,ioos:station:DISL:PPTA:1,2014-11-06T06:30:00Z,30.2791,-87.5561,22.16,1111122 
DISL,ioos:station:DISL:PPTA:1,2014-11-06T07:00:00Z,30.2791,-87.5561,21.93,1111122 
DISL,ioos:station:DISL:PPTA:1,2014-11-06T07:30:00Z,30.2791,-87.5561,21.55,1111122 
DISL,ioos:station:DISL:PPTA:1,2014-11-06T08:00:00Z,30.2791,-87.5561,21.01,1111122 
DISL,ioos:station:DISL:PPTA:1,2014-11-06T08:30:00Z,30.2791,-87.5561,20.3,1111122 
DISL,ioos:station:DISL:PPTA:1,2014-11-06T09:00:00Z,30.2791,-87.5561,19.79,1111122 
DISL,ioos:station:DISL:PPTA:1,2014-11-06T09:30:00Z,30.2791,-87.5561,19.73,1111122 
DISL,ioos:station:DISL:PPTA:1,2014-11-06T10:00:00Z,30.2791,-87.5561,19.59,1111122 
DISL,ioos:station:DISL:PPTA:1,2014-11-06T10:30:00Z,30.2791,-87.5561,19.42,1111122 
DISL,ioos:station:DISL:PPTA:1,2014-11-06T11:00:00Z,30.2791,-87.5561,19.32,1111122 
DISL,ioos:station:DISL:PPTA:1,2014-11-06T11:30:00Z,30.2791,-87.5561,19.25,1111122 
DISL,ioos:station:DISL:PPTA:1,2014-11-06T12:00:00Z,30.2791,-87.5561,18.95,1111122 
DISL,ioos:station:DISL:PPTA:1,2014-11-06T12:30:00Z,30.2791,-87.5561,19.09,1111122 
DISL,ioos:station:DISL:PPTA:1,2014-11-06T13:00:00Z,30.2791,-87.5561,19.26,1111122 
DISL,ioos:station:DISL:PPTA:1,2014-11-06T13:30:00Z,30.2791,-87.5561,19.42,1111122 
DISL,ioos:station:DISL:PPTA:1,2014-11-06T14:00:00Z,30.2791,-87.5561,20.03,1111122 
DISL,ioos:station:DISL:PPTA:1,2014-11-06T14:30:00Z,30.2791,-87.5561,20.41,1111122 
DISL,ioos:station:DISL:PPTA:1,2014-11-06T15:00:00Z,30.2791,-87.5561,21.56,1111122 
DISL,ioos:station:DISL:PPTA:1,2014-11-06T15:30:00Z,30.2791,-87.5561,22.81,1111122 
DISL,ioos:station:DISL:PPTA:1,2014-11-06T16:00:00Z,30.2791,-87.5561,23.31,1111122 
DISL,ioos:station:DISL:PPTA:1,2014-11-06T16:30:00Z,30.2791,-87.5561,23.47,1111122 
DISL,ioos:station:DISL:PPTA:1,2014-11-06T17:00:00Z,30.2791,-87.5561,23.54,1111122 
DISL,ioos:station:DISL:PPTA:1,2014-11-06T17:30:00Z,30.2791,-87.5561,23.87,1111122 
DISL,ioos:station:DISL:PPTA:1,2014-11-06T18:00:00Z,30.2791,-87.5561,24.11,1111122 
DISL,ioos:station:DISL:PPTA:1,2014-11-06T18:30:00Z,30.2791,-87.5561,24.41,1111122 
DISL,ioos:station:DISL:PPTA:1,2014-11-06T19:00:00Z,30.2791,-87.5561,24.34,1111122 
DISL,ioos:station:DISL:PPTA:1,2014-11-06T19:30:00Z,30.2791,-87.5561,24.64,1111122 
DISL,ioos:station:DISL:PPTA:1,2014-11-06T20:00:00Z,30.2791,-87.5561,24.3,1111122 
DISL,ioos:station:DISL:PPTA:1,2014-11-06T20:30:00Z,30.2791,-87.5561,23.63,1111122 
DISL,ioos:station:DISL:PPTA:1,2014-11-06T21:00:00Z,30.2791,-87.5561,22.65,1111122 
DISL,ioos:station:DISL:PPTA:1,2014-11-06T21:30:00Z,30.2791,-87.5561,22.59,1111122 
DISL,ioos:station:DISL:PPTA:1,2014-11-06T22:00:00Z,30.2791,-87.5561,22.65,1111122 
DISL,ioos:station:DISL:PPTA:1,2014-11-06T22:30:00Z,30.2791,-87.5561,22.29,1111122 
DISL,ioos:station:DISL:PPTA:1,2014-11-06T23:00:00Z,30.2791,-87.5561,21.85,1111122 
DISL,ioos:station:DISL:PPTA:1,2014-11-06T23:30:00Z,30.2791,-87.5561,21.38,1111122 